Hourly Weather Munich

Today, 29 September, Wednesday

Time Temperature Precipitation Wind Pressure Humidity
00:00 +13°C° 0.1 mm 1 mps 717 mmHg 92%
01:00 +13°C° 0.1 mm 1 mps 717 mmHg 94%
02:00 +13°C° 0.9 mm 2 mps 717 mmHg 95%
03:00 +13°C° 0.9 mm 2 mps 717 mmHg 96%
04:00 +12°C° 0.9 mm 3 mps 718 mmHg 97%
05:00 +12°C° 1.7 mm 3 mps 718 mmHg 96%
06:00 +12°C° 1.7 mm 3 mps 718 mmHg 95%
07:00 +12°C° 1.7 mm 3 mps 718 mmHg 95%
08:00 +13°C° 0.1 mm 3 mps 718 mmHg 90%
09:00 +13°C° 0.1 mm 4 mps 719 mmHg 86%
10:00 +14°C° 0.1 mm 4 mps 719 mmHg 82%
11:00 +15°C° 0 mm 4 mps 719 mmHg 73%
12:00 +16°C° 0 mm 5 mps 719 mmHg 65%
13:00 +17°C° 0 mm 5 mps 719 mmHg 56%
14:00 +18°C° 0.1 mm 4 mps 719 mmHg 60%
15:00 +17°C° 0.1 mm 4 mps 719 mmHg 63%
16:00 +17°C° 0.1 mm 4 mps 719 mmHg 66%
17:00 +16°C° 0.2 mm 3 mps 720 mmHg 74%
18:00 +13°C° 0.2 mm 3 mps 720 mmHg 82%
19:00 +11°C° 0.2 mm 3 mps 721 mmHg 89%
20:00 +11°C° 0.2 mm 3 mps 721 mmHg 89%
21:00 +11°C° 0.2 mm 3 mps 722 mmHg 89%
22:00 +10°C° 0.2 mm 3 mps 722 mmHg 89%
23:00 +10°C° 0.2 mm 3 mps 722 mmHg 86%

Tomorrow, 30 September, Thursday

Time Temperature Precipitation Wind Pressure Humidity
00:00 +9°C° 0.2 mm 3 mps 723 mmHg 84%
01:00 +9°C° 0.2 mm 3 mps 723 mmHg 81%
02:00 +8°C° 0.1 mm 3 mps 723 mmHg 83%
03:00 +8°C° 0.1 mm 3 mps 724 mmHg 85%
04:00 +8°C° 0.1 mm 3 mps 724 mmHg 87%
05:00 +7°C° 0 mm 2 mps 724 mmHg 88%
06:00 +7°C° 0 mm 2 mps 724 mmHg 90%
07:00 +7°C° 0 mm 2 mps 724 mmHg 91%
08:00 +8°C° 0 mm 2 mps 725 mmHg 82%
09:00 +11°C° 0 mm 1 mps 725 mmHg 74%
10:00 +12°C° 0 mm 1 mps 725 mmHg 66%
11:00 +13°C° 0 mm 1 mps 725 mmHg 61%
12:00 +14°C° 0 mm 1 mps 724 mmHg 56%
13:00 +14°C° 0 mm 1 mps 724 mmHg 50%
14:00 +14°C° 0 mm 1 mps 723 mmHg 51%
15:00 +14°C° 0 mm 1 mps 723 mmHg 52%
16:00 +14°C° 0 mm 1 mps 723 mmHg 53%
17:00 +12°C° 0 mm 1 mps 723 mmHg 60%
18:00 +11°C° 0 mm 1 mps 723 mmHg 67%
19:00 +9°C° 0 mm 1 mps 723 mmHg 74%
20:00 +8°C° 0 mm 1 mps 723 mmHg 77%
21:00 +8°C° 0 mm 1 mps 723 mmHg 80%
22:00 +7°C° 0 mm 1 mps 723 mmHg 83%
23:00 +7°C° 0 mm 1 mps 722 mmHg 85%

Day after tomorrow, 1 October, Friday

Time Temperature Precipitation Wind Pressure Humidity
00:00 +7°C° 0 mm 1 mps 722 mmHg 86%
01:00 +6°C° 0 mm 1 mps 722 mmHg 88%
02:00 +6°C° 0 mm 1 mps 721 mmHg 89%
03:00 +6°C° 0 mm 1 mps 721 mmHg 89%
04:00 +6°C° 0 mm 1 mps 721 mmHg 90%
05:00 +6°C° 0 mm 1 mps 721 mmHg 89%
06:00 +6°C° 0 mm 1 mps 721 mmHg 88%
07:00 +7°C° 0 mm 1 mps 720 mmHg 87%
08:00 +9°C° 0 mm 1 mps 720 mmHg 79%
09:00 +12°C° 0 mm 1 mps 720 mmHg 71%
10:00 +14°C° 0 mm 1 mps 720 mmHg 64%
11:00 +15°C° 0 mm 1 mps 719 mmHg 62%
12:00 +16°C° 0 mm 2 mps 719 mmHg 59%
13:00 +17°C° 0 mm 2 mps 719 mmHg 57%
14:00 +17°C° 0 mm 2 mps 718 mmHg 60%
15:00 +18°C° 0 mm 1 mps 718 mmHg 63%
16:00 +18°C° 0 mm 1 mps 718 mmHg 66%
17:00 +15°C° 0 mm 1 mps 718 mmHg 73%
18:00 +13°C° 0 mm 1 mps 717 mmHg 80%
19:00 +12°C° 0 mm 1 mps 717 mmHg 88%
20:00 +11°C° 0 mm 1 mps 717 mmHg 88%
21:00 +11°C° 0 mm 1 mps 717 mmHg 89%
22:00 +11°C° 0 mm 1 mps 717 mmHg 89%
23:00 +11°C° 0 mm 1 mps 717 mmHg 89%

2 October, Saturday

Time Temperature Precipitation Wind Pressure Humidity
00:00 +10°C° 0 mm 2 mps 717 mmHg 88%
01:00 +10°C° 0 mm 2 mps 717 mmHg 88%
02:00 +10°C° 0 mm 2 mps 717 mmHg 85%
03:00 +12°C° 0 mm 1 mps 717 mmHg 82%
04:00 +12°C° 0 mm 1 mps 717 mmHg 79%
05:00 +12°C° 0 mm 1 mps 717 mmHg 80%
06:00 +12°C° 0 mm 1 mps 717 mmHg 81%
07:00 +12°C° 0 mm 1 mps 717 mmHg 82%
08:00 +14°C° 0 mm 1 mps 717 mmHg 77%
09:00 +15°C° 0 mm 1 mps 717 mmHg 73%
10:00 +16°C° 0 mm 1 mps 717 mmHg 68%
11:00 +19°C° 0 mm 1 mps 717 mmHg 64%
12:00 +20°C° 0 mm 1 mps 717 mmHg 60%
13:00 +21°C° 0 mm 1 mps 716 mmHg 56%
14:00 +20°C° 0 mm 1 mps 716 mmHg 60%
15:00 +19°C° 0 mm 2 mps 715 mmHg 64%
16:00 +19°C° 0 mm 2 mps 715 mmHg 68%
17:00 +17°C° 0 mm 2 mps 714 mmHg 76%
18:00 +15°C° 0 mm 2 mps 714 mmHg 83%
19:00 +13°C° 0 mm 2 mps 714 mmHg 90%
20:00 +13°C° 0 mm 2 mps 713 mmHg 90%
21:00 +12°C° 0 mm 2 mps 713 mmHg 91%
22:00 +12°C° 0 mm 1 mps 713 mmHg 91%
23:00 +12°C° 0 mm 1 mps 712 mmHg 90%

3 October, Sunday

Time Temperature Precipitation Wind Pressure Humidity
00:00 +12°C° 0 mm 2 mps 712 mmHg 88%
01:00 +12°C° 0 mm 2 mps 712 mmHg 87%
02:00 +12°C° 0 mm 2 mps 711 mmHg 85%
03:00 +12°C° 0 mm 2 mps 711 mmHg 83%
04:00 +10°C° 0 mm 2 mps 710 mmHg 80%
05:00 +12°C° 0 mm 2 mps 710 mmHg 80%
06:00 +12°C° 0 mm 1 mps 710 mmHg 79%
07:00 +12°C° 0 mm 1 mps 710 mmHg 78%
08:00 +14°C° 0 mm 2 mps 710 mmHg 74%
09:00 +15°C° 0 mm 2 mps 710 mmHg 69%
10:00 +17°C° 0 mm 2 mps 709 mmHg 65%
11:00 +18°C° 0 mm 3 mps 709 mmHg 63%
12:00 +19°C° 0 mm 3 mps 708 mmHg 60%
13:00 +20°C° 0 mm 3 mps 708 mmHg 57%
14:00 +20°C° 0 mm 3 mps 707 mmHg 61%
15:00 +20°C° 0 mm 2 mps 707 mmHg 66%
16:00 +19°C° 0 mm 2 mps 706 mmHg 70%
17:00 +18°C° 0 mm 2 mps 705 mmHg 73%
18:00 +17°C° 0 mm 2 mps 705 mmHg 75%
19:00 +14°C° 0 mm 3 mps 705 mmHg 78%
20:00 +14°C° 0 mm 3 mps 704 mmHg 76%
21:00 +14°C° 0 mm 3 mps 704 mmHg 74%
22:00 +14°C° 0 mm 3 mps 704 mmHg 73%
23:00 +12°C° 0.2 mm 4 mps 706 mmHg 78%

4 October, Monday

Time Temperature Precipitation Wind Pressure Humidity
00:00 +10°C° 0.2 mm 5 mps 708 mmHg 83%
01:00 +9°C° 0.2 mm 5 mps 710 mmHg 89%
02:00 +9°C° 0.6 mm 5 mps 710 mmHg 90%
03:00 +8°C° 0.6 mm 4 mps 710 mmHg 91%
04:00 +8°C° 0.6 mm 4 mps 710 mmHg 93%
05:00 +9°C° 0.5 mm 3 mps 710 mmHg 93%
06:00 +8°C° 0.5 mm 3 mps 711 mmHg 94%
07:00 +8°C° 0.5 mm 2 mps 711 mmHg 94%
08:00 +8°C° 1.9 mm 2 mps 711 mmHg 94%
09:00 +8°C° 1.9 mm 2 mps 712 mmHg 94%
10:00 +8°C° 1.9 mm 3 mps 712 mmHg 94%
11:00 +8°C° 1.4 mm 3 mps 713 mmHg 93%
12:00 +8°C° 1.4 mm 3 mps 713 mmHg 92%
13:00 +8°C° 1.4 mm 3 mps 713 mmHg 91%
14:00 +8°C° 0.1 mm 3 mps 713 mmHg 90%
15:00 +9°C° 0.1 mm 2 mps 713 mmHg 88%
16:00 +9°C° 0.1 mm 2 mps 712 mmHg 87%
17:00 +9°C° 0 mm 2 mps 713 mmHg 88%
18:00 +9°C° 0 mm 2 mps 713 mmHg 90%
19:00 +8°C° 0 mm 2 mps 714 mmHg 91%
20:00 +8°C° 0 mm 2 mps 714 mmHg 91%
21:00 +9°C° 0 mm 1 mps 714 mmHg 91%
22:00 +8°C° 0 mm 1 mps 714 mmHg 91%
23:00 +8°C° 0.1 mm 2 mps 714 mmHg 91%
Show more

We Need Your Consent

Meteoprog and our Service Providers may store and access personal data such as cookies, device identifiers or other similar technologies on your device and process such data to personalise content and ads, as well as provide social media features and to analyse the traffic.

  • Store and/or access information on your device

    Cookies, device identifiers or other information can be stored or accessed on your device for the purposes indicated above.

  • Personalised ads and content, ad and content measurement, audience insights, and products development

    Ads and content can be personalised based on a profile. More data can be added to better personalise ads and content. Ad and content performance can be measured. Insights about the audience who saw the ads and content can be derived. Such data can be used to develop or improve user’s experience, systems and software.

By clicking ‘I Agree’ you will allow the use of indicated cookies, device identifiers, web beacons or other similar technologies. Your settings can be changed in the browser on your device.

For certain purposes, legitimate interests may be relied on, rather than consent. You can read more about this in our Privacy and Cookie Policy.